This demonstration page uses our WeatherBlox Daily Observations layout. Learn more.

Left ArrowRight Arrow

34.02893, -84.19858

Hourly Observations for July 17, 2021

Temp ( °F °C ) Dew Point ( °F °C ) Humidity (%) Winds ( mph kmh ) Pressure ( in mb ) Visibility ( mi km ) Precip ( " mm )
12:53 am 00:53 Mostly Cloudy 75 23.9 70 21.1 84 84 W 3 6 30.09 1019 10 16 0.00 0.00
1:53 am 01:53 Clear 73 22.8 70 21.1 90 90 Calm 30.09 1019 10 16 0.00 0.00
2:53 am 02:53 Clear 72 22.2 70 21.1 94 94 Calm 30.07 1018 10 16 0.00 0.00
3:53 am 03:53 Clear 72 22.2 70 21.1 94 94 Calm 30.07 1018 10 16 0.00 0.00
4:53 am 04:53 Clear 70 21.1 69 20.6 97 97 Calm 30.08 1019 10 16 0.00 0.00
5:53 am 05:53 Clear 70 21.1 69 20.6 97 97 Calm 30.10 1019 10 16 0.00 0.00
6:53 am 06:53 Mostly Sunny 70 21.1 69 20.6 97 97 W 5 7 30.12 1020 10 16 0.00 0.00
7:53 am 07:53 Sunny 72 22.2 70 21.1 94 94 W 5 7 30.14 1021 10 16 0.00 0.00
8:53 am 08:53 Sunny 76 24.4 69 20.6 79 79 SW 7 11 30.15 1021 10 16 0.00 0.00
9:53 am 09:53 Sunny 79 26.1 69 20.6 72 72 VRB 6 9 30.15 1021 10 16 0.00 0.00
10:53 am 10:53 Sunny 81 27.2 68 20 65 65 undefined N/A 30.14 1021 10 16 0.00 0.00
11:53 am 11:53 Mostly Sunny 84 28.9 69 20.6 61 61 VRB 6 9 30.14 1021 10 16 0.00 0.00
12:53 pm 12:53 Mostly Sunny 86 30 68 20 55 55 W 8 13 30.13 1020 10 16 0.00 0.00
1:53 pm 13:53 Mostly Cloudy 85 29.4 69 20.6 59 59 WNW 5 7 30.12 1020 10 16 0.00 0.00
2:40 pm 14:40 Mostly Cloudy with Nearby Thunderstorms 78 25.6 69 20.6 74 74 SSW 12 19 30.12 1020 2 3 0.06 1.52
2:48 pm 14:48 Mostly Cloudy with Nearby Thunderstorms 82 28 72 22 70 70 WSW 6 9 30.11 1020 3 5 0.06 1.52
2:53 pm 14:53 Partly Cloudy with Nearby Thunderstorms 84 28.9 72 22.2 67 67 SW 7 11 30.11 1020 10 16 0.06 1.52
3:04 pm 15:04 Partly Cloudy with Thunderstorms 80 26.7 70 21.1 71 71 SW 21 33 30.12 1020 10 16 0.00 0.00
3:13 pm 15:13 Mostly Cloudy with Nearby Thunderstorms 73 22.8 68 20 84 84 SSW 12 19 30.13 1020 2 3 0.09 2.29
3:23 pm 15:23 Mostly Cloudy with Nearby Thunderstorms 74 23.3 68 20 82 82 Calm 30.12 1020 4 6 0.11 2.79
3:33 pm 15:33 Cloudy with Light Rain 75 23.9 72 22.2 90 90 Calm 30.11 1020 10 16 0.11 2.79
3:53 pm 15:53 Partly Cloudy 82 27.8 72 22.2 72 72 SW 7 11 30.09 1019 10 16 0.11 2.79
4:50 pm 16:50 Sunny with Nearby Thunderstorms 86 30 72 22 62 62 SW 8 13 30.07 1018 10 16 0.00 0.00
4:53 pm 16:53 Sunny with Nearby Thunderstorms 85 29.4 71 21.7 63 63 SW 10 17 30.07 1018 10 16 0.00 0.00
5:05 pm 17:05 Sunny 87 30.6 69 20.6 55 55 SW 13 20 30.07 1018 10 16 0.00 0.00
5:21 pm 17:21 Sunny with Nearby Thunderstorms 87 30.6 69 20.6 55 55 SW 13 20 30.07 1018 10 16 0.00 0.00
5:36 pm 17:36 Partly Cloudy 85 29.4 68 20 57 57 SW 13 20 30.07 1018 10 16 0.00 0.00
5:53 pm 17:53 Partly Cloudy 84 28.9 68 20 59 59 SW 9 15 30.08 1019 10 16 0.00 0.00
6:53 pm 18:53 Mostly Cloudy 84 28.9 69 20.6 61 61 W 8 13 30.07 1018 10 16 0.00 0.00
7:53 pm 19:53 Mostly Sunny 81 27.2 70 21.1 69 69 SW 7 11 30.09 1019 10 16 0.00 0.00
8:53 pm 20:53 Cloudy 80 26.7 69 20.6 69 69 SSW 8 13 30.11 1020 10 16 0.00 0.00
9:53 pm 21:53 Mostly Clear 79 26.1 69 20.6 72 72 SW 5 7 30.12 1020 10 16 0.00 0.00
10:53 pm 22:53 Partly Cloudy 77 25 69 20.6 77 77 SW 5 7 30.13 1020 10 16 0.00 0.00
11:53 pm 23:53 Clear with Light Rain 73 22.8 68 20 84 84 SSW 7 11 30.14 1021 10 16 0.01 0.25

Powered by AerisWeather